Wetterdaten: Mittwoch, 05.01.2011
Datum Zeit Temp. A. Feuchte A. Luftdruck Regen Wind Richtung Richtung Sonnenschein UV Solar Windben
05.01.2011 00:00 -4,4 C 86 % 1015,2 hPa 0,0 mm 0,0 km/h (0 Bft) S-SO 157 0 min 0 UV-I 0 W/m 1,6 km/h (1 Bft)
05.01.2011 00:10 -4,5 C 86 % 1015,1 hPa 0,0 mm 0,0 km/h (0 Bft) S-SO 157 0 min 0 UV-I 0 W/m 3,2 km/h (1 Bft)
05.01.2011 00:20 -4,6 C 86 % 1015,0 hPa 0,0 mm 0,0 km/h (0 Bft) S-SO 157 0 min 0 UV-I 0 W/m 3,2 km/h (1 Bft)
05.01.2011 00:30 -4,7 C 86 % 1014,9 hPa 0,0 mm 0,0 km/h (0 Bft) S-SO 157 0 min 0 UV-I 0 W/m 1,6 km/h (1 Bft)
05.01.2011 00:40 -4,8 C 87 % 1015,2 hPa 0,0 mm 0,0 km/h (0 Bft) N 0 0 min 0 UV-I 0 W/m 0,0 km/h (0 Bft)
05.01.2011 00:50 -4,8 C 87 % 1015,1 hPa 0,0 mm 0,0 km/h (0 Bft) N 0 0 min 0 UV-I 0 W/m 0,0 km/h (0 Bft)
05.01.2011 01:00 -4,9 C 86 % 1015,0 hPa 0,0 mm 0,0 km/h (0 Bft) N 0 0 min 0 UV-I 0 W/m 0,0 km/h (0 Bft)
05.01.2011 01:10 -5,1 C 87 % 1014,9 hPa 0,0 mm 0,0 km/h (0 Bft) N 0 0 min 0 UV-I 0 W/m 0,0 km/h (0 Bft)
05.01.2011 01:20 -5,2 C 87 % 1014,9 hPa 0,0 mm 0,0 km/h (0 Bft) N 0 0 min 0 UV-I 0 W/m 0,0 km/h (0 Bft)
05.01.2011 01:30 -5,2 C 87 % 1014,8 hPa 0,0 mm 0,0 km/h (0 Bft) N 0 0 min 0 UV-I 0 W/m 0,0 km/h (0 Bft)
05.01.2011 01:40 -5,3 C 87 % 1014,7 hPa 0,0 mm 0,0 km/h (0 Bft) N 0 0 min 0 UV-I 0 W/m 0,0 km/h (0 Bft)
05.01.2011 01:50 -5,4 C 87 % 1014,8 hPa 0,0 mm 0,0 km/h (0 Bft) N 0 0 min 0 UV-I 0 W/m 0,0 km/h (0 Bft)
05.01.2011 02:00 -5,4 C 87 % 1014,6 hPa 0,0 mm 0,0 km/h (0 Bft) N 0 0 min 0 UV-I 0 W/m 0,0 km/h (0 Bft)
05.01.2011 02:10 -5,5 C 87 % 1014,6 hPa 0,0 mm 0,0 km/h (0 Bft) N 0 0 min 0 UV-I 0 W/m 0,0 km/h (0 Bft)
05.01.2011 02:20 -5,6 C 87 % 1014,5 hPa 0,0 mm 0,0 km/h (0 Bft) N 0 0 min 0 UV-I 0 W/m 0,0 km/h (0 Bft)
05.01.2011 02:30 -5,7 C 87 % 1014,4 hPa 0,0 mm 0,0 km/h (0 Bft) N 0 0 min 0 UV-I 0 W/m 0,0 km/h (0 Bft)
05.01.2011 02:40 -5,8 C 87 % 1014,4 hPa 0,0 mm 0,0 km/h (0 Bft) N 0 0 min 0 UV-I 0 W/m 0,0 km/h (0 Bft)
05.01.2011 02:50 -5,8 C 87 % 1014,5 hPa 0,0 mm 0,0 km/h (0 Bft) N 0 0 min 0 UV-I 0 W/m 0,0 km/h (0 Bft)
05.01.2011 03:00 -5,9 C 87 % 1014,4 hPa 0,0 mm 0,0 km/h (0 Bft) N 0 0 min 0 UV-I 0 W/m 0,0 km/h (0 Bft)
05.01.2011 03:10 -5,9 C 87 % 1014,4 hPa 0,0 mm 0,0 km/h (0 Bft) N 0 0 min 0 UV-I 0 W/m 0,0 km/h (0 Bft)
05.01.2011 03:20 -6,0 C 87 % 1014,3 hPa 0,0 mm 0,0 km/h (0 Bft) N 0 0 min 0 UV-I 0 W/m 0,0 km/h (0 Bft)
05.01.2011 03:30 -6,1 C 87 % 1014,3 hPa 0,0 mm 0,0 km/h (0 Bft) N 0 0 min 0 UV-I 0 W/m 0,0 km/h (0 Bft)
05.01.2011 03:40 -6,2 C 88 % 1014,3 hPa 0,0 mm 0,0 km/h (0 Bft) N 0 0 min 0 UV-I 0 W/m 0,0 km/h (0 Bft)
05.01.2011 03:50 -6,2 C 88 % 1014,3 hPa 0,0 mm 0,0 km/h (0 Bft) N 0 0 min 0 UV-I 0 W/m 0,0 km/h (0 Bft)
05.01.2011 04:00 -6,3 C 88 % 1014,3 hPa 0,0 mm 0,0 km/h (0 Bft) N 0 0 min 0 UV-I 0 W/m 0,0 km/h (0 Bft)
05.01.2011 04:10 -6,3 C 88 % 1014,3 hPa 0,0 mm 0,0 km/h (0 Bft) N 0 0 min 0 UV-I 0 W/m 0,0 km/h (0 Bft)
05.01.2011 04:20 -6,4 C 88 % 1014,2 hPa 0,0 mm 0,0 km/h (0 Bft) S-SO 157 0 min 0 UV-I 0 W/m 1,6 km/h (1 Bft)
05.01.2011 04:30 -6,4 C 88 % 1014,0 hPa 0,0 mm 0,0 km/h (0 Bft) S-SO 157 0 min 0 UV-I 0 W/m 1,6 km/h (1 Bft)
05.01.2011 04:40 -6,4 C 88 % 1013,9 hPa 0,0 mm 0,0 km/h (0 Bft) S-SO 157 0 min 0 UV-I 0 W/m 4,8 km/h (1 Bft)
05.01.2011 04:50 -6,3 C 89 % 1013,9 hPa 0,0 mm 0,0 km/h (0 Bft) SO 135 0 min 0 UV-I 0 W/m 6,4 km/h (2 Bft)
05.01.2011 05:00 -6,2 C 89 % 1013,9 hPa 0,0 mm 0,0 km/h (0 Bft) SO 135 0 min 0 UV-I 0 W/m 4,8 km/h (1 Bft)
05.01.2011 05:10 -6,1 C 89 % 1013,9 hPa 0,0 mm 0,0 km/h (0 Bft) SO 135 0 min 0 UV-I 0 W/m 3,2 km/h (1 Bft)
05.01.2011 05:20 -5,9 C 89 % 1013,9 hPa 0,0 mm 0,0 km/h (0 Bft) SO 135 0 min 0 UV-I 0 W/m 3,2 km/h (1 Bft)
05.01.2011 05:30 -5,8 C 89 % 1013,8 hPa 0,0 mm 0,0 km/h (0 Bft) SO 135 0 min 0 UV-I 0 W/m 3,2 km/h (1 Bft)
05.01.2011 05:40 -5,8 C 89 % 1013,7 hPa 0,0 mm 0,0 km/h (0 Bft) SO 135 0 min 0 UV-I 0 W/m 1,6 km/h (1 Bft)
05.01.2011 05:50 -5,8 C 89 % 1013,7 hPa 0,0 mm 0,0 km/h (0 Bft) SO 135 0 min 0 UV-I 0 W/m 3,2 km/h (1 Bft)
05.01.2011 06:00 -5,8 C 89 % 1013,7 hPa 0,0 mm 0,0 km/h (0 Bft) SO 135 0 min 0 UV-I 0 W/m 4,8 km/h (1 Bft)
05.01.2011 06:10 -5,8 C 89 % 1013,6 hPa 0,0 mm 0,0 km/h (0 Bft) SO 135 0 min 0 UV-I 0 W/m 4,8 km/h (1 Bft)
05.01.2011 06:20 -5,9 C 89 % 1013,5 hPa 0,0 mm 1,6 km/h (1 Bft) SO 135 0 min 0 UV-I 0 W/m 4,8 km/h (1 Bft)
05.01.2011 06:30 -5,9 C 89 % 1013,3 hPa 0,0 mm 0,0 km/h (0 Bft) SO 135 0 min 0 UV-I 0 W/m 3,2 km/h (1 Bft)
05.01.2011 06:40 -5,9 C 89 % 1013,4 hPa 0,0 mm 1,6 km/h (1 Bft) SO 135 0 min 0 UV-I 0 W/m 8,0 km/h (2 Bft)
05.01.2011 06:50 -5,9 C 89 % 1013,3 hPa 0,0 mm 0,0 km/h (0 Bft) SO 135 0 min 0 UV-I 0 W/m 3,2 km/h (1 Bft)
05.01.2011 07:00 -5,8 C 89 % 1013,2 hPa 0,0 mm 0,0 km/h (0 Bft) SO 135 0 min 0 UV-I 0 W/m 6,4 km/h (2 Bft)
05.01.2011 07:10 -5,8 C 89 % 1013,3 hPa 0,0 mm 0,0 km/h (0 Bft) S-SO 157 0 min 0 UV-I 0 W/m 6,4 km/h (2 Bft)
05.01.2011 07:20 -5,8 C 89 % 1013,2 hPa 0,0 mm 1,6 km/h (1 Bft) S-SO 157 0 min 0 UV-I 0 W/m 8,0 km/h (2 Bft)
05.01.2011 07:30 -5,7 C 89 % 1013,2 hPa 0,0 mm 1,6 km/h (1 Bft) O 90 0 min 0 UV-I 0 W/m 6,4 km/h (2 Bft)
05.01.2011 07:40 -5,7 C 88 % 1013,2 hPa 0,0 mm 1,6 km/h (1 Bft) S-SO 157 0 min 0 UV-I 0 W/m 6,4 km/h (2 Bft)
05.01.2011 07:50 -5,6 C 88 % 1013,2 hPa 0,0 mm 1,6 km/h (1 Bft) O-SO 112 0 min 0 UV-I 0 W/m 3,2 km/h (1 Bft)
05.01.2011 08:00 -5,5 C 88 % 1013,2 hPa 0,0 mm 1,8 km/h (1 Bft) S-SO 153 0 min 0 UV-I 0 W/m 4,8 km/h (1 Bft)
05.01.2011 08:10 -5,4 C 88 % 1013,1 hPa 0,0 mm 1,6 km/h (1 Bft) O-SO 111 0 min 0 UV-I 0 W/m 6,4 km/h (2 Bft)
05.01.2011 08:20 -5,4 C 88 % 1012,9 hPa 0,0 mm 1,6 km/h (1 Bft) O-SO 112 0 min 0 UV-I 5 W/m 9,7 km/h (2 Bft)
05.01.2011 08:30 -5,4 C 88 % 1012,8 hPa 0,0 mm 1,6 km/h (1 Bft) O-SO 112 0 min 0 UV-I 9 W/m 8,0 km/h (2 Bft)
05.01.2011 08:40 -5,3 C 88 % 1012,8 hPa 0,0 mm 3,2 km/h (1 Bft) SO 135 0 min 0 UV-I 11 W/m 9,7 km/h (2 Bft)
05.01.2011 08:50 -5,2 C 88 % 1012,7 hPa 0,0 mm 3,2 km/h (1 Bft) O-SO 112 10 min 0 UV-I 14 W/m 8,0 km/h (2 Bft)
05.01.2011 09:00 -5,1 C 87 % 1012,4 hPa 0,0 mm 3,2 km/h (1 Bft) O-SO 112 0 min 0 UV-I 21 W/m 8,0 km/h (2 Bft)
05.01.2011 09:10 -4,9 C 87 % 1012,6 hPa 0,0 mm 1,6 km/h (1 Bft) SO 135 0 min 0 UV-I 32 W/m 8,0 km/h (2 Bft)
05.01.2011 09:20 -4,8 C 87 % 1012,7 hPa 0,0 mm 1,6 km/h (1 Bft) S-SO 157 0 min 0 UV-I 39 W/m 14,5 km/h (3 Bft)
05.01.2011 09:30 -4,7 C 87 % 1012,8 hPa 0,0 mm 3,2 km/h (1 Bft) S-SO 157 0 min 0 UV-I 42 W/m 9,7 km/h (2 Bft)
05.01.2011 09:40 -4,5 C 87 % 1012,9 hPa 0,0 mm 1,6 km/h (1 Bft) SW 225 0 min 0 UV-I 46 W/m 8,0 km/h (2 Bft)
05.01.2011 09:50 -4,4 C 86 % 1013,0 hPa 0,0 mm 3,2 km/h (1 Bft) SO 135 0 min 0 UV-I 54 W/m 9,7 km/h (2 Bft)
05.01.2011 10:00 -4,3 C 86 % 1012,9 hPa 0,0 mm 3,2 km/h (1 Bft) S 180 0 min 0 UV-I 69 W/m 8,0 km/h (2 Bft)
05.01.2011 10:10 -4,2 C 86 % 1012,7 hPa 0,0 mm 1,6 km/h (1 Bft) SO 135 0 min 0 UV-I 88 W/m 9,7 km/h (2 Bft)
05.01.2011 10:20 -4,1 C 85 % 1012,6 hPa 0,0 mm 3,2 km/h (1 Bft) O-SO 112 10 min 0 UV-I 125 W/m 11,3 km/h (2 Bft)
05.01.2011 10:30 -3,9 C 85 % 1012,6 hPa 0,0 mm 3,2 km/h (1 Bft) O-SO 112 0 min 0 UV-I 107 W/m 16,1 km/h (3 Bft)
05.01.2011 10:40 -3,8 C 85 % 1012,6 hPa 0,0 mm 4,8 km/h (1 Bft) O-SO 112 0 min 0 UV-I 98 W/m 14,5 km/h (3 Bft)
05.01.2011 10:50 -3,6 C 84 % 1012,4 hPa 0,0 mm 4,8 km/h (1 Bft) SO 135 0 min 1 UV-I 83 W/m 14,5 km/h (3 Bft)
05.01.2011 11:00 -3,5 C 83 % 1012,3 hPa 0,0 mm 4,8 km/h (1 Bft) SO 135 0 min 1 UV-I 90 W/m 16,1 km/h (3 Bft)
05.01.2011 11:10 -3,4 C 83 % 1012,2 hPa 0,0 mm 6,4 km/h (2 Bft) O-SO 112 0 min 1 UV-I 114 W/m 16,1 km/h (3 Bft)
05.01.2011 11:20 -3,2 C 83 % 1012,2 hPa 0,0 mm 4,8 km/h (1 Bft) O-SO 112 0 min 1 UV-I 134 W/m 16,1 km/h (3 Bft)
05.01.2011 11:30 -2,8 C 82 % 1012,0 hPa 0,0 mm 4,8 km/h (1 Bft) O-SO 112 10 min 1 UV-I 146 W/m 11,3 km/h (2 Bft)
05.01.2011 11:40 -2,6 C 81 % 1011,9 hPa 0,0 mm 4,8 km/h (1 Bft) SO 135 10 min 1 UV-I 163 W/m 17,7 km/h (3 Bft)
05.01.2011 11:50 -2,3 C 80 % 1011,9 hPa 0,0 mm 3,2 km/h (1 Bft) SO 135 10 min 1 UV-I 156 W/m 16,1 km/h (3 Bft)
05.01.2011 12:00 -2,2 C 79 % 1011,9 hPa 0,0 mm 4,8 km/h (1 Bft) O-SO 112 0 min 1 UV-I 149 W/m 16,1 km/h (3 Bft)
05.01.2011 12:10 -2,1 C 79 % 1011,9 hPa 0,0 mm 4,8 km/h (1 Bft) O-SO 112 0 min 1 UV-I 139 W/m 14,5 km/h (3 Bft)
05.01.2011 12:20 -2,2 C 78 % 1011,5 hPa 0,0 mm 4,8 km/h (1 Bft) S-SO 157 10 min 1 UV-I 258 W/m 14,5 km/h (3 Bft)
05.01.2011 12:30 -2,2 C 78 % 1011,3 hPa 0,0 mm 3,2 km/h (1 Bft) SO 135 10 min 1 UV-I 244 W/m 16,1 km/h (3 Bft)
05.01.2011 12:40 -2,2 C 78 % 1011,2 hPa 0,0 mm 3,2 km/h (1 Bft) SO 135 10 min 1 UV-I 236 W/m 9,7 km/h (2 Bft)
05.01.2011 12:50 -2,2 C 78 % 1011,2 hPa 0,0 mm 3,2 km/h (1 Bft) O-SO 112 10 min 1 UV-I 200 W/m 9,7 km/h (2 Bft)
05.01.2011 13:00 -2,1 C 77 % 1010,9 hPa 0,0 mm 3,2 km/h (1 Bft) SO 135 10 min 1 UV-I 234 W/m 9,7 km/h (2 Bft)
05.01.2011 13:10 -2,0 C 77 % 1010,8 hPa 0,0 mm 4,8 km/h (1 Bft) O-SO 112 10 min 1 UV-I 214 W/m 14,5 km/h (3 Bft)
05.01.2011 13:20 -2,0 C 77 % 1010,7 hPa 0,0 mm 4,8 km/h (1 Bft) O-SO 112 10 min 1 UV-I 248 W/m 12,9 km/h (3 Bft)
05.01.2011 13:30 -1,9 C 77 % 1010,4 hPa 0,0 mm 3,2 km/h (1 Bft) O-SO 112 10 min 1 UV-I 225 W/m 9,7 km/h (2 Bft)
05.01.2011 13:40 -1,9 C 77 % 1010,4 hPa 0,0 mm 3,2 km/h (1 Bft) O 90 10 min 1 UV-I 216 W/m 8,0 km/h (2 Bft)
05.01.2011 13:50 -1,9 C 77 % 1010,4 hPa 0,0 mm 1,6 km/h (1 Bft) O-SO 112 10 min 1 UV-I 169 W/m 8,0 km/h (2 Bft)
05.01.2011 14:00 -1,9 C 77 % 1010,4 hPa 0,0 mm 3,2 km/h (1 Bft) O-SO 112 10 min 1 UV-I 146 W/m 12,9 km/h (3 Bft)
05.01.2011 14:10 -1,9 C 76 % 1010,2 hPa 0,0 mm 4,8 km/h (1 Bft) SO 135 0 min 1 UV-I 105 W/m 14,5 km/h (3 Bft)
05.01.2011 14:20 -1,8 C 76 % 1010,0 hPa 0,0 mm 4,8 km/h (1 Bft) SO 135 0 min 1 UV-I 90 W/m 12,9 km/h (3 Bft)
05.01.2011 14:30 -1,8 C 75 % 1010,1 hPa 0,0 mm 4,8 km/h (1 Bft) SO 135 0 min 1 UV-I 83 W/m 16,1 km/h (3 Bft)
05.01.2011 14:40 -1,9 C 75 % 1009,7 hPa 0,0 mm 6,4 km/h (2 Bft) O-SO 112 0 min 0 UV-I 79 W/m 19,3 km/h (3 Bft)
05.01.2011 14:50 -1,9 C 75 % 1009,5 hPa 0,0 mm 4,8 km/h (1 Bft) O-SO 112 0 min 0 UV-I 76 W/m 17,7 km/h (3 Bft)
05.01.2011 15:00 -2,0 C 75 % 1009,3 hPa 0,0 mm 4,8 km/h (1 Bft) O-SO 112 0 min 0 UV-I 77 W/m 14,5 km/h (3 Bft)
05.01.2011 15:10 -2,0 C 76 % 1009,1 hPa 0,0 mm 3,2 km/h (1 Bft) O-SO 112 0 min 0 UV-I 67 W/m 11,3 km/h (2 Bft)
05.01.2011 15:20 -2,0 C 76 % 1009,0 hPa 0,0 mm 4,8 km/h (1 Bft) O-SO 112 10 min 0 UV-I 77 W/m 16,1 km/h (3 Bft)
05.01.2011 15:30 -1,9 C 76 % 1009,0 hPa 0,0 mm 3,2 km/h (1 Bft) SO 135 10 min 0 UV-I 149 W/m 16,1 km/h (3 Bft)
05.01.2011 15:40 -1,9 C 75 % 1008,9 hPa 0,0 mm 3,2 km/h (1 Bft) O-SO 112 10 min 0 UV-I 74 W/m 11,3 km/h (2 Bft)
05.01.2011 15:50 -2,0 C 74 % 1008,8 hPa 0,0 mm 3,2 km/h (1 Bft) O-SO 112 10 min 0 UV-I 49 W/m 14,5 km/h (3 Bft)
05.01.2011 16:00 -2,4 C 74 % 1008,6 hPa 0,0 mm 6,3 km/h (2 Bft) S-SO 148 10 min 0 UV-I 29 W/m 11,3 km/h (2 Bft)
05.01.2011 16:10 -2,6 C 75 % 1008,6 hPa 0,0 mm 4,8 km/h (1 Bft) S 180 10 min 0 UV-I 23 W/m 17,7 km/h (3 Bft)
05.01.2011 16:20 -3,0 C 76 % 1008,6 hPa 0,0 mm 4,8 km/h (1 Bft) SO 135 0 min 0 UV-I 16 W/m 20,9 km/h (4 Bft)
05.01.2011 16:30 -3,3 C 76 % 1008,5 hPa 0,0 mm 4,8 km/h (1 Bft) S 180 0 min 0 UV-I 9 W/m 19,3 km/h (3 Bft)
05.01.2011 16:40 -3,6 C 77 % 1008,4 hPa 0,0 mm 6,4 km/h (2 Bft) SO 135 0 min 0 UV-I 5 W/m 24,1 km/h (4 Bft)
05.01.2011 16:50 -3,8 C 78 % 1008,3 hPa 0,0 mm 4,8 km/h (1 Bft) S 180 0 min 0 UV-I 0 W/m 22,5 km/h (4 Bft)
05.01.2011 17:00 -3,9 C 79 % 1008,0 hPa 0,0 mm 6,4 km/h (2 Bft) SO 135 0 min 0 UV-I 0 W/m 24,1 km/h (4 Bft)
05.01.2011 17:10 -4,1 C 79 % 1007,9 hPa 0,0 mm 4,8 km/h (1 Bft) S-SO 157 0 min 0 UV-I 0 W/m 25,7 km/h (4 Bft)
05.01.2011 17:20 -4,2 C 80 % 1007,8 hPa 0,0 mm 4,8 km/h (1 Bft) S-SW 202 0 min 0 UV-I 0 W/m 16,1 km/h (3 Bft)
05.01.2011 17:30 -4,3 C 80 % 1007,4 hPa 0,0 mm 4,8 km/h (1 Bft) O-SO 112 0 min 0 UV-I 0 W/m 16,1 km/h (3 Bft)
05.01.2011 17:40 -4,3 C 81 % 1007,3 hPa 0,0 mm 6,4 km/h (2 Bft) SO 135 0 min 0 UV-I 0 W/m 24,1 km/h (4 Bft)
05.01.2011 17:50 -4,3 C 81 % 1007,2 hPa 0,0 mm 6,4 km/h (2 Bft) O-SO 112 0 min 0 UV-I 0 W/m 25,7 km/h (4 Bft)
05.01.2011 18:00 -4,4 C 81 % 1006,9 hPa 0,0 mm 4,8 km/h (1 Bft) O-SO 112 0 min 0 UV-I 0 W/m 22,5 km/h (4 Bft)
05.01.2011 18:10 -4,4 C 81 % 1006,8 hPa 0,0 mm 6,4 km/h (2 Bft) S-SO 157 0 min 0 UV-I 0 W/m 19,3 km/h (3 Bft)
05.01.2011 18:20 -4,5 C 82 % 1006,7 hPa 0,0 mm 6,4 km/h (2 Bft) O-SO 112 0 min 0 UV-I 0 W/m 25,7 km/h (4 Bft)
05.01.2011 18:30 -4,5 C 82 % 1006,6 hPa 0,0 mm 8,0 km/h (2 Bft) O-SO 112 0 min 0 UV-I 0 W/m 24,1 km/h (4 Bft)
05.01.2011 18:40 -4,5 C 82 % 1006,6 hPa 0,0 mm 6,4 km/h (2 Bft) O-SO 112 0 min 0 UV-I 0 W/m 27,4 km/h (4 Bft)
05.01.2011 18:50 -4,6 C 82 % 1006,6 hPa 0,0 mm 4,8 km/h (1 Bft) SO 135 0 min 0 UV-I 0 W/m 19,3 km/h (3 Bft)
05.01.2011 19:00 -4,5 C 82 % 1006,4 hPa 0,0 mm 3,2 km/h (1 Bft) S-SO 157 0 min 0 UV-I 0 W/m 20,9 km/h (4 Bft)
05.01.2011 19:10 -4,6 C 82 % 1006,5 hPa 0,0 mm 4,8 km/h (1 Bft) S-SO 157 0 min 0 UV-I 0 W/m 20,9 km/h (4 Bft)
05.01.2011 19:20 -4,5 C 82 % 1006,3 hPa 0,0 mm 4,8 km/h (1 Bft) O-SO 112 0 min 0 UV-I 0 W/m 14,5 km/h (3 Bft)
05.01.2011 19:30 -4,4 C 82 % 1006,0 hPa 0,0 mm 3,2 km/h (1 Bft) S-SO 157 0 min 0 UV-I 0 W/m 17,7 km/h (3 Bft)
05.01.2011 19:40 -4,4 C 83 % 1005,8 hPa 0,0 mm 6,4 km/h (2 Bft) O-SO 112 0 min 0 UV-I 0 W/m 17,7 km/h (3 Bft)
05.01.2011 19:50 -4,3 C 83 % 1005,6 hPa 0,0 mm 3,2 km/h (1 Bft) SO 135 0 min 0 UV-I 0 W/m 14,5 km/h (3 Bft)
05.01.2011 20:00 -4,2 C 83 % 1005,5 hPa 0,0 mm 3,2 km/h (1 Bft) O-SO 112 0 min 0 UV-I 0 W/m 14,5 km/h (3 Bft)
05.01.2011 20:10 -4,0 C 83 % 1005,0 hPa 0,0 mm 4,8 km/h (1 Bft) O-SO 112 0 min 0 UV-I 0 W/m 16,1 km/h (3 Bft)
05.01.2011 20:20 -3,8 C 83 % 1004,7 hPa 0,0 mm 5,7 km/h (1 Bft) O 98 0 min 0 UV-I 0 W/m 8,0 km/h (2 Bft)
05.01.2011 20:30 -3,6 C 83 % 1004,7 hPa 0,0 mm 5,0 km/h (1 Bft) S 175 0 min 0 UV-I 0 W/m 16,1 km/h (3 Bft)
05.01.2011 20:40 -3,6 C 83 % 1004,3 hPa 0,0 mm 3,2 km/h (1 Bft) S-SO 157 0 min 0 UV-I 0 W/m 17,7 km/h (3 Bft)
05.01.2011 20:50 -3,2 C 83 % 1004,0 hPa 0,0 mm 4,1 km/h (1 Bft) S-SW 194 0 min 0 UV-I 0 W/m 14,5 km/h (3 Bft)
05.01.2011 21:00 -3,1 C 83 % 1004,0 hPa 0,0 mm 3,2 km/h (1 Bft) SO 129 0 min 0 UV-I 0 W/m 9,7 km/h (2 Bft)
05.01.2011 21:10 -2,9 C 82 % 1004,0 hPa 0,0 mm 3,8 km/h (1 Bft) O 90 0 min 0 UV-I 0 W/m 11,3 km/h (2 Bft)
05.01.2011 21:20 -2,8 C 82 % 1003,7 hPa 0,0 mm 3,3 km/h (1 Bft) SO 132 0 min 0 UV-I 0 W/m 8,0 km/h (2 Bft)
05.01.2011 21:30 -2,7 C 82 % 1003,7 hPa 0,0 mm 3,8 km/h (1 Bft) S-SW 205 0 min 0 UV-I 0 W/m 17,7 km/h (3 Bft)
05.01.2011 21:40 -2,5 C 82 % 1003,4 hPa 0,0 mm 4,5 km/h (1 Bft) SO 130 0 min 0 UV-I 0 W/m 14,5 km/h (3 Bft)
05.01.2011 21:50 -2,3 C 82 % 1003,4 hPa 0,0 mm 2,8 km/h (1 Bft) S-SO 164 0 min 0 UV-I 0 W/m 12,9 km/h (3 Bft)
05.01.2011 22:00 -2,2 C 82 % 1003,3 hPa 0,0 mm 4,2 km/h (1 Bft) SO 143 0 min 0 UV-I 0 W/m 16,1 km/h (3 Bft)
05.01.2011 22:10 -2,1 C 81 % 1002,9 hPa 0,0 mm 3,7 km/h (1 Bft) O-SO 106 0 min 0 UV-I 0 W/m 14,5 km/h (3 Bft)
05.01.2011 22:20 -1,9 C 81 % 1003,0 hPa 0,0 mm 2,6 km/h (1 Bft) SW 215 0 min 0 UV-I 0 W/m 11,3 km/h (2 Bft)
05.01.2011 22:30 -1,9 C 81 % 1002,8 hPa 0,0 mm 0,6 km/h (0 Bft) S 178 0 min 0 UV-I 0 W/m 4,8 km/h (1 Bft)
05.01.2011 22:40 -1,9 C 81 % 1002,6 hPa 0,0 mm 1,3 km/h (1 Bft) O-SO 103 0 min 0 UV-I 0 W/m 9,7 km/h (2 Bft)
05.01.2011 22:50 -1,8 C 81 % 1002,4 hPa 0,0 mm 3,3 km/h (1 Bft) O 90 0 min 0 UV-I 0 W/m 8,0 km/h (2 Bft)
05.01.2011 23:00 -1,8 C 81 % 1002,3 hPa 0,0 mm 1,8 km/h (1 Bft) O 101 0 min 0 UV-I 0 W/m 6,4 km/h (2 Bft)
05.01.2011 23:10 -1,7 C 82 % 1002,1 hPa 0,0 mm 2,4 km/h (1 Bft) S-SO 154 0 min 0 UV-I 0 W/m 14,5 km/h (3 Bft)
05.01.2011 23:20 -1,6 C 82 % 1002,1 hPa 0,0 mm 2,9 km/h (1 Bft) S-SO 163 0 min 0 UV-I 0 W/m 11,3 km/h (2 Bft)
05.01.2011 23:30 -1,4 C 82 % 1001,9 hPa 0,0 mm 1,6 km/h (1 Bft) SO 130 0 min 0 UV-I 0 W/m 6,4 km/h (2 Bft)
05.01.2011 23:40 -1,2 C 83 % 1001,9 hPa 0,0 mm 1,9 km/h (1 Bft) S-SO 151 0 min 0 UV-I 0 W/m 11,3 km/h (2 Bft)
05.01.2011 23:50 -1,1 C 83 % 1001,7 hPa 0,0 mm 2,6 km/h (1 Bft) S-SO 152 0 min 0 UV-I 0 W/m 9,7 km/h (2 Bft)
_ Min-Zeit 04:30 15:50 23:50 - 00:00 - - - - - 00:40
Minimum _ -6,5 C 74 % 1001,7 hPa - 0,0 km/h (0 Bft) - - - - - 0,0 km/h (0 Bft)
_ Max-Zeit 23:50 04:50 00:00 00:00 18:30 - - 08:50 12:20 12:20 18:40
Maximum _ -1,1 C 89 % 1015,2 hPa 0,0 mm 8,0 km/h
O-SO (2 Bft)
- - 10 min 1 UV-I 258 W/m 27,4 km/h
S-SO (4 Bft)
Durchschnitt _ -4,0 C 83 % 1010,3 hPa #0,0 mm 2,7 km/h (1 Bft) O-SO - #3:40 h 1 UV-I 105 W/m 10,3 km/h (2 Bft)